Theta_e
329 327 328 328 327 334 342 341 339 333 333 334 333 332 332 330 333 336 340 345 350 355 359 358 357 356 354 354 353 352 351 350 348 346 344 343 340 337 334 332 330 329 328
326 323 326 321 321 322 326 334 338 331 334 334 331 331 334 332 332 336 337 334 348 352 355 357 354 353 355 354 354 353 352 350 350 348 346 344 342 338 335 332 330 330 327
320 323 321 317 318 321 323 322 322 325 327 333 333 335 333 331 329 331 335 340 344 351 354 354 349 352 355 352 351 353 352 351 350 348 348 346 343 339 332 332 330 328 329
320 322 319 317 321 323 321 319 319 317 317 318 318 320 322 326 329 328 331 334 339 342 348 352 350 352 352 351 351 351 350 349 349 349 348 346 339 335 335 332 332 331 326
324 323 321 322 322 323 322 320 318 319 317 317 319 318 318 322 323 329 329 332 336 339 343 351 349 347 348 349 347 348 351 350 349 349 348 340 338 335 333 334 332 328 325
326 323 325 324 324 323 322 321 319 320 318 316 319 318 316 317 320 329 334 336 334 333 334 339 338 342 346 347 347 348 348 346 345 344 342 338 336 334 334 332 328 324 324
325 324 325 324 325 322 320 320 320 319 316 317 314 312 312 314 318 325 330 332 330 328 330 331 333 334 337 342 345 345 343 343 342 340 336 334 334 333 330 327 324 321 321
326 326 324 323 323 321 321 320 319 318 317 317 312 308 305 310 316 320 325 327 324 326 327 330 329 330 331 336 339 344 341 341 338 336 333 332 331 329 326 322 320 321 321
327 326 326 325 324 323 321 321 323 319 315 315 315 309 306 304 308 313 318 324 321 322 324 324 326 328 333 332 336 338 339 338 337 334 331 329 327 324 321 319 319 319 319
325 326 327 324 324 324 322 319 323 322 317 316 317 317 315 311 306 306 315 317 324 322 319 320 321 326 331 330 336 337 335 335 333 331 328 328 324 322 320 318 317 318 318
316 318 317 316 315 315 317 319 319 321 319 316 315 314 312 309 309 309 306 308 321 320 319 321 322 323 326 328 328 330 329 328 328 327 325 322 320 318 317 316 316 316 316
311 314 316 314 313 312 313 313 314 314 315 315 315 313 312 309 306 306 303 303 307 319 320 320 320 321 325 325 327 325 322 320 319 318 317 317 316 315 314 314 314 313 314
309 310 310 310 309 310 313 314 313 310 311 312 313 313 314 312 310 307 304 302 302 316 316 317 318 319 320 320 321 321 319 316 315 314 313 313 312 312 312 312 312 312 313
309 308 308 308 308 310 310 310 310 312 313 311 311 311 312 314 312 310 305 303 299 301 314 313 316 317 318 317 319 318 314 314 312 311 311 310 310 309 309 308 308 309 309
308 308 307 307 307 308 309 308 308 309 308 309 310 311 311 312 313 312 310 308 302 298 299 312 311 315 317 316 315 311 310 312 311 310 310 309 308 308 308 307 307 307 307
305 307 308 309 308 306 306 304 304 305 305 306 309 309 310 310 311 312 311 309 306 303 299 311 312 314 313 313 314 309 310 311 310 310 309 308 307 307 306 306 306 306 306
304 304 305 305 305 305 305 303 303 305 305 305 306 307 309 311 309 311 311 312 309 306 303 311 312 313 310 310 309 309 308 306 309 309 308 307 306 306 305 304 304 305 305
305 307 307 307 307 305 304 303 304 306 306 305 307 307 308 313 310 311 311 311 312 309 305 308 310 309 309 309 307 305 307 308 308 308 307 306 305 305 305 304 303 302 303
303 304 305 305 306 307 305 306 304 306 307 309 309 310 309 308 307 311 310 310 312 313 307 309 308 309 308 307 304 305 305 305 308 309 307 306 305 304 303 303 303 302 301
303 304 304 305 306 307 306 307 307 305 306 308 310 310 310 308 311 308 310 310 312 309 308 309 308 307 306 305 305 301 301 304 304 307 307 305 304 303 303 302 304 303 301
303 303 303 304 305 305 306 306 306 305 304 305 307 308 308 311 312 313 312 311 310 309 309 308 306 305 304 303 302 302 300 302 302 304 304 304 298 296 298 300 302 302 301
302 303 303 303 303 304 304 305 306 304 304 303 303 305 304 310 311 310 311 312 311 309 309 307 306 304 303 303 304 301 301 299 298 304 303 301 300 298 299 300 301 300 300
302 302 302 302 302 304 302 302 304 304 302 302 304 302 303 308 309 309 310 309 309 309 311 309 306 306 304 305 304 301 301 300 301 303 303 298 300 298 299 299 301 300 299
302 302 302 303 303 304 302 300 302 303 303 302 303 305 303 304 308 308 308 307 308 307 309 308 306 306 308 308 306 304 302 304 306 305 305 296 300 299 300 299 302 300 300
303 303 303 303 303 303 301 300 300 302 302 301 303 304 304 306 304 303 307 305 305 305 307 307 306 304 302 303 305 304 302 303 302 304 306 301 301 299 300 300 300 302 301
304 304 304 305 304 303 301 299 300 302 300 301 302 302 304 305 300 299 305 305 303 303 306 306 305 302 303 303 304 306 305 304 302 302 306 301 300 300 298 302 301 301 300
Wind_Speed
1 2 2 3 3 2 1 3 3 3 4 5 4 5 7 6 6 5 3 11 13 16 14 14 15 16 16 16 15 16 16 17 18 18 19 19 20 17 15 12 9 8 7
3 3 2 3 2 3 2 2 3 4 4 4 5 5 6 6 8 7 7 5 11 15 13 11 10 13 14 16 14 17 18 18 18 19 20 19 18 17 14 10 9 8 2
3 3 2 2 2 3 5 4 4 3 3 3 5 5 4 6 6 6 7 6 7 9 11 13 10 17 14 12 10 12 16 17 16 19 21 20 23 15 4 12 10 6 8
2 3 1 2 2 3 3 3 2 1 2 2 3 4 4 5 6 6 5 5 4 2 1 9 5 7 8 9 9 7 9 11 14 15 16 20 17 25 20 17 12 9 2
3 3 1 2 4 2 3 2 3 2 3 4 5 5 4 3 3 5 6 4 5 2 3 7 11 8 2 2 3 5 7 8 8 12 9 22 20 18 15 11 9 4 2
11 8 5 4 3 3 3 3 2 2 2 3 4 4 5 4 2 5 5 5 5 6 7 6 4 4 11 11 9 8 8 4 3 4 15 16 13 12 8 6 4 2 2
9 6 6 8 6 3 1 1 1 1 2 2 3 5 3 3 3 4 3 4 5 5 5 4 4 3 4 9 7 7 9 8 14 17 16 11 6 10 9 9 6 2 2
3 5 7 7 9 7 7 4 1 1 1 1 1 0 5 6 3 3 3 3 3 3 4 4 3 4 3 3 5 9 12 13 16 15 13 12 11 10 9 6 2 1 3
3 4 3 8 6 6 8 4 3 4 2 2 2 2 2 3 4 4 2 3 4 4 3 5 5 5 5 4 7 8 12 13 14 14 13 13 12 9 6 2 1 2 4
6 5 7 7 7 8 10 4 3 4 3 2 2 3 2 3 2 5 3 3 4 5 5 4 5 6 5 4 8 12 12 14 14 14 12 11 10 7 5 2 4 5 6
6 5 3 2 0 2 3 3 2 1 1 2 2 2 2 0 1 2 3 3 3 4 3 4 4 5 5 6 7 13 16 14 13 14 12 10 8 6 6 5 7 7 7
3 3 5 5 5 3 3 3 2 2 1 2 1 2 2 3 3 1 2 3 2 3 3 4 4 4 3 6 12 18 18 16 14 13 11 9 9 8 7 7 8 7 8
3 5 3 4 3 3 3 1 2 3 2 1 2 3 3 4 3 3 3 3 2 2 1 3 3 3 5 5 7 14 16 15 13 12 12 11 9 9 9 9 9 9 9
4 3 4 4 4 4 3 4 3 3 4 4 5 4 3 4 4 4 2 3 0 1 2 3 1 2 4 5 8 14 8 14 13 11 11 9 8 7 8 8 8 9 10
4 6 6 6 5 4 4 5 4 4 4 5 6 5 4 4 4 4 4 4 4 4 3 3 2 2 2 5 8 5 6 11 12 10 9 9 8 9 9 9 9 10 10
6 6 5 4 5 5 6 5 4 4 5 5 4 5 5 4 4 4 4 4 3 4 4 2 2 3 5 5 8 6 7 9 11 11 10 9 9 10 10 10 11 11 11
8 7 7 6 6 6 6 5 6 6 6 6 5 6 8 7 4 4 4 4 4 3 5 2 2 5 4 7 5 5 6 4 4 12 11 11 11 11 11 10 11 11 11
7 7 7 6 7 7 7 7 7 6 6 6 6 6 7 5 6 6 5 6 4 4 5 9 3 3 3 6 7 7 4 4 3 12 12 11 11 10 10 9 10 10 11
9 9 8 10 11 10 7 8 7 6 6 6 7 6 5 5 6 5 5 6 4 2 4 7 4 2 3 6 6 5 4 4 3 12 11 11 10 10 11 11 11 11 10
9 9 9 9 9 8 7 8 7 6 5 5 6 5 4 4 1 5 7 8 6 6 7 8 5 4 4 5 6 7 5 2 3 3 6 9 8 9 10 10 14 14 12
9 10 10 9 9 8 7 7 7 6 5 5 5 4 5 6 7 2 2 6 7 7 7 7 6 4 5 7 8 5 4 3 1 1 2 1 2 2 3 7 10 13 14
11 10 10 10 10 7 10 11 10 5 5 5 5 4 5 8 6 4 3 6 2 9 10 6 4 8 7 8 7 8 6 4 3 2 3 2 1 2 2 3 10 11 13
10 10 10 10 11 10 11 11 11 7 6 5 6 5 5 5 7 6 6 2 3 10 15 10 10 7 7 10 8 10 8 5 3 4 3 2 2 1 1 2 5 10 12
10 9 9 10 9 9 12 12 12 7 6 7 6 5 6 6 7 7 6 5 4 7 8 5 9 9 8 11 10 8 11 5 5 5 2 3 2 0 1 2 3 3 8
8 9 9 10 9 9 11 11 8 6 7 7 7 7 6 6 5 8 6 6 6 4 2 5 7 10 12 16 13 10 8 5 5 4 4 2 2 1 1 2 3 4 3
7 6 8 7 10 9 10 11 8 4 6 5 6 5 8 7 11 10 6 5 6 4 6 6 6 8 10 13 17 8 9 6 4 3 5 3 2 2 0 1 3 4 4
Wind_Direction
138 48 23 47 22 29 184 235 232 257 262 267 264 273 305 309 314 280 252 267 255 243 243 237 235 223 231 233 223 222 217 216 217 214 211 217 216 212 212 212 219 222 226
61 38 59 40 38 15 6 269 240 242 259 276 293 287 293 294 294 286 280 263 248 241 231 245 261 292 250 235 227 227 227 221 224 224 223 220 218 214 214 211 221 237 296
71 68 61 32 27 20 79 56 23 15 359 314 302 304 287 285 288 297 294 270 265 257 219 212 223 237 237 263 261 266 239 230 230 234 231 225 216 192 157 231 207 225 234
86 55 41 347 43 75 65 58 58 1 2 352 302 288 300 308 308 303 293 282 344 52 342 202 195 245 238 200 248 266 281 261 240 233 230 242 139 175 192 198 207 209 168
347 92 135 354 23 51 60 39 34 49 336 336 319 322 322 317 346 330 327 356 37 53 139 118 154 178 225 356 295 292 280 271 254 235 213 163 166 172 188 200 210 170 221
12 347 6 37 51 63 33 28 26 331 286 304 312 317 310 319 4 19 52 60 45 32 16 26 24 24 46 51 31 7 349 47 96 88 144 145 156 174 190 167 132 116 359
1 6 358 347 352 357 339 322 355 326 308 336 350 326 316 317 84 91 79 57 47 47 48 21 29 8 17 36 53 61 58 77 86 104 109 124 145 121 134 112 108 95 295
326 348 327 321 323 326 317 307 358 333 266 354 311 322 337 331 3 51 115 111 91 48 52 56 33 41 36 45 56 97 96 95 105 103 106 112 114 108 104 108 122 286 303
158 161 270 278 284 297 273 228 246 177 241 282 232 182 337 283 326 347 17 56 86 72 58 32 13 22 48 60 68 83 103 103 102 103 104 103 102 100 96 79 62 345 329
218 236 228 232 229 252 261 280 230 226 138 248 307 238 189 185 264 331 336 41 63 59 38 24 21 20 30 40 82 96 95 101 107 106 113 112 110 110 95 41 11 358 338
226 244 262 359 320 294 326 310 332 348 252 51 192 260 316 114 253 185 258 322 48 60 42 37 30 17 32 57 67 85 90 93 95 94 89 80 76 67 47 27 11 356 340
272 202 169 164 151 113 11 17 32 1 261 244 251 210 196 215 234 174 262 264 170 58 34 28 39 19 55 89 98 95 93 90 85 83 82 73 63 50 36 19 13 348 341
229 234 216 211 181 185 174 172 332 320 308 231 266 264 220 225 223 192 171 241 154 134 81 25 13 46 73 88 106 107 99 92 85 77 70 63 51 40 28 14 4 355 348
241 247 261 253 258 238 223 200 209 221 237 249 252 246 235 229 189 202 209 157 269 101 149 137 17 32 105 106 121 105 102 98 90 82 80 69 54 38 25 12 2 358 360
244 236 237 246 258 253 239 223 221 234 230 238 240 235 240 248 215 208 208 205 186 174 181 170 142 145 130 111 111 94 88 106 104 98 88 76 60 43 31 19 12 6 2
290 281 269 261 253 247 249 252 267 262 242 244 230 236 233 226 227 228 202 219 225 158 137 167 141 142 131 112 123 113 120 111 108 99 87 70 57 46 31 23 16 12 5
263 262 254 251 250 251 249 243 236 245 247 254 245 237 243 226 208 211 199 202 209 194 124 113 112 132 118 125 114 92 94 83 93 93 86 66 48 41 32 19 16 15 9
268 265 257 253 252 239 236 234 231 238 232 241 242 238 243 246 231 200 193 192 188 244 127 139 123 134 128 136 123 110 103 88 101 101 87 72 55 43 38 26 22 9 11
276 271 267 266 263 248 225 231 225 233 229 239 243 221 234 240 251 221 185 189 184 181 144 141 127 117 99 136 125 113 114 116 141 116 100 78 61 52 40 33 31 21 11
275 269 264 265 264 252 252 257 240 218 230 249 238 211 215 246 285 249 193 182 158 152 125 131 115 139 143 139 141 146 149 156 132 135 108 92 67 47 40 26 23 21 15
272 271 267 262 259 251 252 245 239 219 220 248 226 220 222 227 226 2 203 178 148 147 135 132 138 149 146 151 170 156 154 132 105 199 110 140 60 336 14 16 14 13 16
268 267 262 261 260 250 241 237 241 220 207 220 214 205 233 225 218 185 276 141 186 125 136 136 154 170 175 166 159 157 152 153 162 221 140 135 102 336 1 22 23 21 16
270 265 259 253 253 248 239 238 235 235 231 221 222 198 208 215 204 175 197 241 220 156 160 151 164 168 165 175 154 157 159 163 153 150 127 147 217 204 19 5 13 31 27
264 259 258 250 245 243 232 229 234 231 221 219 225 206 198 199 198 179 182 177 191 163 159 167 160 177 169 164 165 155 151 147 108 143 164 147 205 232 263 276 309 359 38
266 259 252 251 243 243 225 222 213 221 210 213 217 215 210 181 168 194 167 157 147 156 82 82 136 146 140 134 138 137 152 165 141 163 203 146 184 147 274 292 288 331 2
272 267 267 251 245 243 222 212 201 203 194 198 204 195 197 162 180 191 157 150 134 136 134 116 93 92 124 135 145 149 149 153 145 130 193 125 136 143 79 47 16 9 7